#timestamp,LO_Frequency,Hit,StdDev 
1592985615.3,286047003.8,N
1592985635.1,286047001.4,N
1592985655.9,286047001.6,N
1592985675.7,286047001.9,N
1592985695.6,286047001.7,N
1592985715.4,286047001.4,N
1592985735.2,286047003.3,N
1592985755.1,286047004.6,N
1592985756.0,286047004.6,N
1592985775.8,286047006.0,N
1592985795.7,286047007.4,Y
1592985815.5,286047007.2,P
1592985835.3,286047007.8,N
1592985855.2,286047010.5,P
1592985875.9,286047011.5,Y
1592985895.7,286047003.4,P
1592985915.6,286047005.6,P
1592985935.4,286047005.4,P
1592985955.3,286047007.4,Y
1592985975.1,286046997.0,P
1592985995.8,286046996.9,N
1592986015.7,286046996.2,N
1592986035.5,286046995.7,N
1592986055.4,286046993.5,N
1592986075.2,286046991.8,N
1592986095.0,286046994.7,N
1592986095.9,286046994.7,N
1592986115.8,286046994.7,N
1592986135.6,286046992.9,N
1592986155.4,286046994.0,N
1592986175.3,286046993.6,N
1592986195.1,286046995.8,N
1592986215.9,286046993.4,N
1592986235.7,286046996.3,N
1592986255.5,286046992.6,N
1592986275.4,286046993.7,N
1592986295.2,286046998.0,N
1592986315.1,286046998.8,N
1592986316.0,286046998.8,N
1592986335.8,286046999.2,N
1592986355.6,286046996.1,N
1592986375.5,286046993.5,N
1592986395.3,286046994.7,N
1592986415.2,286046992.8,N
1592986435.9,286046990.5,Y
1592986455.7,286046995.6,P
1592986475.6,286046996.2,P
1592986495.4,286046993.7,P
1592986515.3,286046994.5,Y
1592986535.1,286046999.3,P
1592986536.0,286046999.3,N
1592986555.8,286047000.7,N
1592986575.7,286046999.3,N
1592986595.5,286046999.0,N
1592986615.3,286046999.2,N
1592986635.2,286046997.0,N
1592986655.0,286046997.1,N
1592986655.9,286046997.1,N
1592986675.8,286046999.4,N
1592986695.6,286046996.6,N
1592986715.4,286046998.0,N
1592986735.3,286046996.7,N
1592986755.1,286046997.4,N
1592986775.9,286046994.9,Y
1592986795.7,286046999.1,P
1592986815.5,286046996.7,P
1592986835.4,286046996.5,P
1592986855.2,286046997.8,N
1592986875.0,286046997.7,N
1592986875.9,286046997.7,N
1592986895.8,286046999.6,N
1592986915.6,286046997.6,N
1592986935.5,286046998.7,N
1592986955.3,286046997.3,N
1592986975.1,286046998.0,N
1592986995.9,286046995.8,Y
1592987015.7,286046999.0,P
1592987035.6,286046997.3,P
1592987055.4,286046996.2,P
1592987075.2,286046997.2,N
1592987095.1,286046997.2,Y
1592987096.0,286046997.2,P
1592987115.8,286046998.7,P
1592987135.7,286046996.8,P
1592987155.5,286046999.1,N
1592987175.3,286046996.6,Y
1592987195.2,286047000.0,P
1592987215.0,286047000.5,N
1592987215.9,286047000.5,N
1592987235.7,286047000.9,N
1592987255.6,286047002.3,N
1592987275.4,286047002.0,N
1592987295.3,286047001.4,N
1592987315.1,286047002.4,N
1592987335.8,286047002.1,N
1592987355.7,286047002.2,N
1592987375.5,286047003.6,N
1592987395.4,286047004.1,N
1592987415.2,286047001.8,N
1592987435.0,286047000.9,N
1592987435.9,286047000.9,N
1592987455.8,286047000.9,N
1592987475.6,286047002.8,N
1592987495.5,286047002.7,N
1592987515.3,286046998.9,N
1592987535.1,286047000.9,N
1592987555.9,286047000.2,N
1592987575.7,286046999.8,N
1592987595.6,286047000.9,N
1592987615.4,286047000.7,N
1592987635.2,286046998.1,N
1592987655.1,286046998.6,N
1592987656.0,286046998.6,N
1592987675.8,286046998.9,N
1592987695.6,286046998.3,N
1592987715.5,286047002.8,N
1592987735.3,286047002.7,N
1592987755.2,286046999.9,N
1592987775.9,286047001.4,N
1592987795.7,286047002.4,N
1592987815.6,286047002.7,N
1592987835.4,286047002.8,N
1592987855.2,286047000.1,N
1592987875.1,286046999.7,N
1592987876.0,286046999.7,N
1592987895.8,286047001.4,N
1592987915.7,286047001.8,N
1592987935.5,286047001.6,N
1592987955.3,286047002.6,N
1592987975.2,286047004.1,N
1592987995.0,286047000.7,N
1592987995.9,286047000.7,N
1592988015.8,286047003.1,N
1592988035.6,286047005.6,Y
1592988055.4,286047001.5,P
1592988075.3,286047001.4,P
1592988095.1,286047001.3,P
1592988115.9,286047001.8,Y
1592988135.7,286047002.7,P
1592988155.5,286047000.1,N
1592988175.4,286046999.8,N
1592988195.2,286046999.8,N
1592988215.0,286047001.6,N
1592988215.9,286047001.6,N
1592988235.8,286047001.9,N
1592988255.6,286047002.1,N
1592988275.5,286047003.6,Y
1592988295.3,286047002.1,P
1592988315.2,286047004.2,P
1592988335.9,286047001.3,N
1592988355.7,286047002.5,N
1592988375.6,286046999.8,N
1592988395.4,286047002.4,N
1592988415.3,286047002.5,N
1592988435.1,286047002.3,N
1592988436.0,286047002.3,N
1592988455.8,286047002.2,N
1592988475.7,286047004.4,Y
1592988495.5,286047000.7,P
1592988515.4,286047000.6,N
1592988535.2,286047000.4,N
1592988555.0,286047000.8,N
1592988555.9,286047000.8,N
1592988575.8,286046998.5,N
1592988595.6,286046998.9,N
1592988615.5,286046996.5,Y
1592988635.3,286046999.1,P
1592988655.1,286046998.8,N
1592988675.9,286046999.0,N
1592988695.7,286046996.7,Y
1592988715.5,286046999.5,P
1592988735.4,286046997.4,P
1592988755.2,286046999.6,N
1592988775.1,286046997.7,N
1592988776.0,286046997.7,N
1592988795.8,286046994.9,Y
1592988815.6,286046999.6,P
1592988835.5,286046999.2,N
1592988855.3,286046998.8,N
1592988875.2,286047001.2,N
1592988895.9,286047001.2,N
1592988915.7,286047000.5,N
1592988935.6,286046998.5,N
1592988955.4,286047000.7,N
1592988975.3,286047001.0,N
1592988995.1,286046998.9,N
1592988996.0,286046998.9,N
1592989015.8,286046998.5,N
1592989035.7,286046998.6,N
1592989055.5,286046998.5,N
1592989075.3,286046999.1,N
1592989095.2,286047001.1,N
1592989115.0,286047000.4,N
1592989115.9,286047000.4,N
1592989135.8,286046998.3,N
1592989155.6,286046996.8,Y
1592989175.5,286046997.0,P
1592989195.3,286046996.5,N
